Regional Weather Roundup
Issued by NWS

Home | Current Version | Previous Version | Text Only | Print | Product List | Glossary Off
Versions: 1 2 3 4 5 6 7 8 9 10 11 12 13 14 15 16 17 18 19 20 21 22 23 24 25 26 27 28 29 30 31 32 33 34 35 36 37 38 39 40 41 42 43 44 45 46 47 48 49 50

000
ASUS43 KOAX 311810
RWRNE

WEATHER ROUNDUP FOR NEBRASKA
NATIONAL WEATHER SERVICE OMAHA NE
100 PM CDT FRI OCT 31 2014

NOTES: SATELLITE DATA IS BEING USED TO AUGMENT CLOUD COVER ABOVE
       12000 FEET.
       "FAIR" INDICATES FEW OR NO CLOUDS BELOW 12,000 FEET WITH NO
       SIGNIFICANT WEATHER AND/OR OBSTRUCTIONS TO VISIBILITY.

  * THESE STATIONS DO NOT REPORT WEATHER SUCH AS RAIN...SNOW OR FOG.

NEZ001>004-019>022-054>056-311900-
NEBRASKA PANHANDLE

CITY           SKY/WX    TMP DP  RH WIND       PRES   REMARKS
SCOTTSBLUFF    SUNNY     45  32  60 SE22G30   30.29F
6HR MIN TEMP:  29; 6HR MAX TEMP:  45;

ALLIANCE       SUNNY     39  29  67 S22       30.34F WCI  29
6HR MIN TEMP:  28; 6HR MAX TEMP:  39;

CHADRON        SUNNY     46  31  55 S17G29    30.29F
6HR MIN TEMP:  27; 6HR MAX TEMP:  46;

KIMBALL        SUNNY     45  31  57 S23G29    30.28F
SIDNEY         SUNNY     43  30  60 S21       30.35F
6HR MIN TEMP:  25; 6HR MAX TEMP:  43;

$$

NEZ057>060-069>072-079>082-311900-
SOUTHWEST NEBRASKA

CITY           SKY/WX    TMP DP  RH WIND       PRES   REMARKS
NORTH PLATTE   MOSUNNY   40  24  53 E6        30.47F
6HR MIN TEMP:  29; 6HR MAX TEMP:  40;

IMPERIAL       SUNNY     39  28  64 SE15      30.45F WCI  31
6HR MIN TEMP:  27; 6HR MAX TEMP:  39;

LEXINGTON      SUNNY     38  17  43 S7        30.52F WCI  32
MCCOOK         SUNNY     40  23  50 SE9       30.51F WCI  34
6HR MIN TEMP:  31; 6HR MAX TEMP:  40;

OGALLALA       SUNNY     42  29  61 SE8       30.43F
$$

NEZ005>010-023>029-035>040-094-311900-
NORTH CENTRAL NEBRASKA

CITY           SKY/WX    TMP DP  RH WIND       PRES   REMARKS
VALENTINE      PTSUNNY   38  17  42 S16       30.45F WCI  29
6HR MIN TEMP:  19; 6HR MAX TEMP:  39;

AINSWORTH      MOSUNNY   37  15  41 S12G17    30.48F WCI  29
BROKEN BOW     SUNNY     39  18  42 VRB7      30.50F WCI  34
6HR MIN TEMP:  27; 6HR MAX TEMP:  39;

O`NEILL        SUNNY     37  18  47 CALM      30.54F
ORD            SUNNY     36  18  48 VRB5      30.53F WCI  32
6HR MIN TEMP:  19; 6HR MAX TEMP:  37;

THEDFORD       MOSUNNY   38  23  54 SE9       30.46F WCI  31
$$

NEZ041-046>049-061>064-073>077-083>087-311900-
SOUTH CENTRAL NEBRASKA

CITY           SKY/WX    TMP DP  RH WIND       PRES   REMARKS
GRAND ISLAND   SUNNY     38  17  42 E5        30.55F WCI  34
6HR MIN TEMP:  22; 6HR MAX TEMP:  38;

AURORA         SUNNY     37  14  39 N5        30.55F WCI  33
HASTINGS       SUNNY     37  17  44 CALM      30.54F
6HR MIN TEMP:  26; 6HR MAX TEMP:  37;

HEBRON         SUNNY     39  13  33 NE7       30.55F WCI  34
HOLDREGE       SUNNY     37  14  40 CALM      30.52F
KEARNEY *      SUNNY     36  16  44 NE7       30.54F WCI  30
YORK           SUNNY     37  18  44 NE9       30.56F WCI  31
$$

NEZ011>018-030>034-042>045-311900-
NORTHEAST NEBRASKA

CITY           SKY/WX    TMP DP  RH WIND       PRES   REMARKS
NORFOLK        SUNNY     38  16  40 NE7       30.55F WCI  33
6HR MIN TEMP:  21; 6HR MAX TEMP:  38;

ALBION         SUNNY     37  15  40 NE6       30.55F WCI  32
BLAIR          SUNNY     38  20  49 N9        30.55F WCI  31
FREMONT        SUNNY     39  19  46 N8        30.57F WCI  33
TEKAMAH        SUNNY     40  20  44 N13       30.58F WCI  32
6HR MIN TEMP:  27; 6HR MAX TEMP:  40;

WAYNE          SUNNY     37  17  45 NE8       30.57F WCI  30
$$

NEZ050>053-065>068-078-088>093-311900-
SOUTHEAST NEBRASKA

CITY           SKY/WX    TMP DP  RH WIND       PRES   REMARKS
LINCOLN        SUNNY     40  18  41 N8        30.57F WCI  34
6HR MIN TEMP:  26; 6HR MAX TEMP:  40;

OMAHA EPPLEY   SUNNY     39  19  44 N12       30.57F WCI  32
6HR MIN TEMP:  28; 6HR MAX TEMP:  39;

BEATRICE       SUNNY     39  19  43 N5        30.55F
FALLS CITY     SUNNY     42  18  37 N10G20    30.53F
6HR MIN TEMP:  30; 6HR MAX TEMP:  42;

NEBRASKA CITY  SUNNY     40  13  33 N12       30.54F WCI  33
PLATTSMOUTH    SUNNY     38  16  39 N7        30.54F WCI  33
$$

NEZ044-045-051>053-067-311900-
OMAHA AREA

CITY           SKY/WX    TMP DP  RH WIND       PRES   REMARKS
OMAHA EPPLEY   SUNNY     39  19  44 N12       30.57F WCI  32
6HR MIN TEMP:  28; 6HR MAX TEMP:  39;

BLAIR          SUNNY     38  20  49 N9        30.55F WCI  31
FREMONT        SUNNY     39  19  46 N8        30.57F WCI  33
MILLARD        SUNNY     38  19  47 N6        30.56F WCI  34
OFFUTT AFB     SUNNY     39  18  42 N8        30.55F WCI  34
PLATTSMOUTH    SUNNY     38  16  39 N7        30.54F WCI  33
WAHOO          FAIR      39  16  39 N8        30.56F WCI  34
$$



USA.gov is the U.S. government's official web portal to all federal, state and local government web resources and services.